Year,Month,Day,Hour,Minute,Value (Times are PST for temperature in C)
2006,09,02,00,00,17.60
2006,09,02,00,01,17.50
2006,09,02,00,02,17.50
2006,09,02,00,03,17.50
2006,09,02,00,04,17.40
2006,09,02,00,05,17.40
2006,09,02,00,06,17.40
2006,09,02,00,07,17.30
2006,09,02,00,08,17.30
2006,09,02,00,09,17.30
2006,09,02,00,10,17.30
2006,09,02,00,11,17.30
2006,09,02,00,12,17.20
2006,09,02,00,13,17.20
2006,09,02,00,14,17.20
2006,09,02,00,15,17.10
2006,09,02,00,16,17.10
2006,09,02,00,17,17.00
2006,09,02,00,18,17.00
2006,09,02,00,19,17.00
2006,09,02,00,20,16.90
2006,09,02,00,21,16.90
2006,09,02,00,22,16.90
2006,09,02,00,23,16.90
2006,09,02,00,24,16.90
2006,09,02,00,25,16.80
2006,09,02,00,26,16.80
2006,09,02,00,27,16.80
2006,09,02,00,28,16.80
2006,09,02,00,29,16.80
2006,09,02,00,30,16.70
2006,09,02,00,31,16.70
2006,09,02,00,32,16.70
2006,09,02,00,33,16.70
2006,09,02,00,34,16.70
2006,09,02,00,35,16.70
2006,09,02,00,36,16.70
2006,09,02,00,37,16.70
2006,09,02,00,38,16.70
2006,09,02,00,39,16.70
2006,09,02,00,40,16.70
2006,09,02,00,41,16.70
2006,09,02,00,42,16.70
2006,09,02,00,43,16.70
2006,09,02,00,44,16.70
2006,09,02,00,45,16.70
2006,09,02,00,46,16.70
2006,09,02,00,47,16.60
2006,09,02,00,48,16.60
2006,09,02,00,49,16.50
2006,09,02,00,50,16.40
2006,09,02,00,51,16.40
2006,09,02,00,52,16.40
2006,09,02,00,53,16.40
2006,09,02,00,54,16.40
2006,09,02,00,55,16.40
2006,09,02,00,56,16.40
2006,09,02,00,57,16.40
2006,09,02,00,58,16.40
2006,09,02,00,59,16.50
2006,09,02,01,00,16.60
2006,09,02,01,01,16.60
2006,09,02,01,02,16.60
2006,09,02,01,03,16.70
2006,09,02,01,04,16.70
2006,09,02,01,05,16.70
2006,09,02,01,06,16.70
2006,09,02,01,07,16.70
2006,09,02,01,08,16.70
2006,09,02,01,09,16.70
2006,09,02,01,10,16.70
2006,09,02,01,11,16.60
2006,09,02,01,12,16.60
2006,09,02,01,13,16.60
2006,09,02,01,14,16.50
2006,09,02,01,15,16.40
2006,09,02,01,16,16.40
2006,09,02,01,17,16.40
2006,09,02,01,18,16.30
2006,09,02,01,19,16.30
2006,09,02,01,20,16.20
2006,09,02,01,21,16.20
2006,09,02,01,22,16.10
2006,09,02,01,23,16.10
2006,09,02,01,24,16.10
2006,09,02,01,25,16.10
2006,09,02,01,26,16.10
2006,09,02,01,27,16.20
2006,09,02,01,28,16.20
2006,09,02,01,29,16.20
2006,09,02,01,30,16.20
2006,09,02,01,31,16.20
2006,09,02,01,32,16.20
2006,09,02,01,33,16.20
2006,09,02,01,34,16.20
2006,09,02,01,35,16.20
2006,09,02,01,36,16.20
2006,09,02,01,37,16.20
2006,09,02,01,38,16.20
2006,09,02,01,39,16.20
2006,09,02,01,40,16.20
2006,09,02,01,41,16.20
2006,09,02,01,42,16.20
2006,09,02,01,43,16.20
2006,09,02,01,44,16.20
2006,09,02,01,45,16.20
2006,09,02,01,46,16.20
2006,09,02,01,47,16.20
2006,09,02,01,48,16.30
2006,09,02,01,49,16.30
2006,09,02,01,50,16.30
2006,09,02,01,51,16.30
2006,09,02,01,52,16.30
2006,09,02,01,53,16.30
2006,09,02,01,54,16.30
2006,09,02,01,55,16.20
2006,09,02,01,56,16.20
2006,09,02,01,57,16.20
2006,09,02,01,58,16.20
2006,09,02,01,59,16.10
2006,09,02,02,00,16.10
2006,09,02,02,01,16.10
2006,09,02,02,02,16.10
2006,09,02,02,03,16.10
2006,09,02,02,04,16.20
2006,09,02,02,05,16.20
2006,09,02,02,06,16.20
2006,09,02,02,07,16.20
2006,09,02,02,08,16.20
2006,09,02,02,09,16.10
2006,09,02,02,10,16.10
2006,09,02,02,11,16.10
2006,09,02,02,12,16.10
2006,09,02,02,13,16.10
2006,09,02,02,14,16.10
2006,09,02,02,15,16.10
2006,09,02,02,16,16.10
2006,09,02,02,17,16.10
2006,09,02,02,18,16.00
2006,09,02,02,19,15.90
2006,09,02,02,20,15.90
2006,09,02,02,21,15.90
2006,09,02,02,22,15.90
2006,09,02,02,23,15.90
2006,09,02,02,24,15.90
2006,09,02,02,25,15.80
2006,09,02,02,26,15.80
2006,09,02,02,27,15.80
2006,09,02,02,28,15.80
2006,09,02,02,29,15.80
2006,09,02,02,30,15.80
2006,09,02,02,31,15.80
2006,09,02,02,32,15.80
2006,09,02,02,33,15.80
2006,09,02,02,34,15.80
2006,09,02,02,35,15.80
2006,09,02,02,36,15.80
2006,09,02,02,37,15.80
2006,09,02,02,38,15.80
2006,09,02,02,39,15.80
2006,09,02,02,40,15.80
2006,09,02,02,41,15.80
2006,09,02,02,42,15.80
2006,09,02,02,43,15.70
2006,09,02,02,44,15.70
2006,09,02,02,45,15.70
2006,09,02,02,46,15.70
2006,09,02,02,47,15.70
2006,09,02,02,48,15.70
2006,09,02,02,49,15.70
2006,09,02,02,50,15.80
2006,09,02,02,51,15.80
2006,09,02,02,52,15.80
2006,09,02,02,53,15.80
2006,09,02,02,54,15.80
2006,09,02,02,55,15.80
2006,09,02,02,56,15.80
2006,09,02,02,57,15.90
2006,09,02,02,58,15.90
2006,09,02,02,59,15.90
2006,09,02,03,00,15.90
2006,09,02,03,01,16.00
2006,09,02,03,02,16.10
2006,09,02,03,03,16.10
2006,09,02,03,04,16.10
2006,09,02,03,05,16.20
2006,09,02,03,06,16.20
2006,09,02,03,07,16.20
2006,09,02,03,08,16.20
2006,09,02,03,09,16.20
2006,09,02,03,10,16.20
2006,09,02,03,11,16.20
2006,09,02,03,12,16.20
2006,09,02,03,13,16.20
2006,09,02,03,14,16.20
2006,09,02,03,15,16.20
2006,09,02,03,16,16.20
2006,09,02,03,17,16.20
2006,09,02,03,18,16.10
2006,09,02,03,19,16.10
2006,09,02,03,20,16.10
2006,09,02,03,21,16.10
2006,09,02,03,22,16.00
2006,09,02,03,23,15.90
2006,09,02,03,24,15.80
2006,09,02,03,25,15.80
2006,09,02,03,26,15.80
2006,09,02,03,27,15.70
2006,09,02,03,28,15.60
2006,09,02,03,29,15.50
2006,09,02,03,30,15.40
2006,09,02,03,31,15.30
2006,09,02,03,32,15.30
2006,09,02,03,33,15.20
2006,09,02,03,34,15.20
2006,09,02,03,35,15.20
2006,09,02,03,36,15.10
2006,09,02,03,37,15.10
2006,09,02,03,38,15.10
2006,09,02,03,39,15.10
2006,09,02,03,40,15.00
2006,09,02,03,41,15.00
2006,09,02,03,42,15.00
2006,09,02,03,43,15.00
2006,09,02,03,44,14.90
2006,09,02,03,45,14.90
2006,09,02,03,46,14.90
2006,09,02,03,47,14.90
2006,09,02,03,48,14.80
2006,09,02,03,49,14.80
2006,09,02,03,50,14.80
2006,09,02,03,51,14.80
2006,09,02,03,52,14.80
2006,09,02,03,53,14.80
2006,09,02,03,54,14.80
2006,09,02,03,55,14.80
2006,09,02,03,56,14.80
2006,09,02,03,57,14.90
2006,09,02,03,58,14.90
2006,09,02,03,59,14.90
2006,09,02,04,00,14.90
2006,09,02,04,01,14.90
2006,09,02,04,02,14.90
2006,09,02,04,03,15.00
2006,09,02,04,04,15.00
2006,09,02,04,05,15.00
2006,09,02,04,06,15.10
2006,09,02,04,07,15.10
2006,09,02,04,08,15.20
2006,09,02,04,09,15.20
2006,09,02,04,10,15.20
2006,09,02,04,11,15.30
2006,09,02,04,12,15.30
2006,09,02,04,13,15.30
2006,09,02,04,14,15.30
2006,09,02,04,15,15.30
2006,09,02,04,16,15.30
2006,09,02,04,17,15.30
2006,09,02,04,18,15.30
2006,09,02,04,19,15.30
2006,09,02,04,20,15.30
2006,09,02,04,21,15.30
2006,09,02,04,22,15.30
2006,09,02,04,23,15.30
2006,09,02,04,24,15.30
2006,09,02,04,25,15.30
2006,09,02,04,26,15.30
2006,09,02,04,27,15.30
2006,09,02,04,28,15.30
2006,09,02,04,29,15.40
2006,09,02,04,30,15.50
2006,09,02,04,31,15.50
2006,09,02,04,32,15.60
2006,09,02,04,33,15.60
2006,09,02,04,34,15.70
2006,09,02,04,35,15.80
2006,09,02,04,36,15.80
2006,09,02,04,37,15.80
2006,09,02,04,38,15.80
2006,09,02,04,39,15.80
2006,09,02,04,40,15.80
2006,09,02,04,41,15.80
2006,09,02,04,42,15.80
2006,09,02,04,43,15.80
2006,09,02,04,44,15.80
2006,09,02,04,45,15.80
2006,09,02,04,46,15.80
2006,09,02,04,47,15.80
2006,09,02,04,48,15.80
2006,09,02,04,49,15.80
2006,09,02,04,50,15.80
2006,09,02,04,51,15.80
2006,09,02,04,52,15.80
2006,09,02,04,53,15.80
2006,09,02,04,54,15.80
2006,09,02,04,55,15.80
2006,09,02,04,56,15.80
2006,09,02,04,57,15.80
2006,09,02,04,58,15.80
2006,09,02,04,59,15.80
2006,09,02,05,00,15.80
2006,09,02,05,01,15.70
2006,09,02,05,02,15.80
2006,09,02,05,03,15.80
2006,09,02,05,04,15.80
2006,09,02,05,05,15.80
2006,09,02,05,06,15.80
2006,09,02,05,07,15.80
2006,09,02,05,08,15.80
2006,09,02,05,09,15.80
2006,09,02,05,10,15.80
2006,09,02,05,11,15.80
2006,09,02,05,12,15.80
2006,09,02,05,13,15.80
2006,09,02,05,14,15.80
2006,09,02,05,15,15.80
2006,09,02,05,16,15.80
2006,09,02,05,17,15.80
2006,09,02,05,18,15.80
2006,09,02,05,19,15.80
2006,09,02,05,20,15.80
2006,09,02,05,21,15.90
2006,09,02,05,22,15.90
2006,09,02,05,23,15.90
2006,09,02,05,24,15.90
2006,09,02,05,25,15.90
2006,09,02,05,26,15.90
2006,09,02,05,27,15.90
2006,09,02,05,28,15.90
2006,09,02,05,29,15.90
2006,09,02,05,30,15.90
2006,09,02,05,31,15.90
2006,09,02,05,32,15.80
2006,09,02,05,33,15.80
2006,09,02,05,34,15.90
2006,09,02,05,35,15.80
2006,09,02,05,36,15.80
2006,09,02,05,37,15.80
2006,09,02,05,38,15.80
2006,09,02,05,39,15.80
2006,09,02,05,40,15.80
2006,09,02,05,41,15.80
2006,09,02,05,42,15.80
2006,09,02,05,43,15.80
2006,09,02,05,44,15.90
2006,09,02,05,45,15.90
2006,09,02,05,46,15.90
2006,09,02,05,47,16.00
2006,09,02,05,48,16.10
2006,09,02,05,49,16.10
2006,09,02,05,50,16.10
2006,09,02,05,51,16.10
2006,09,02,05,52,16.10
2006,09,02,05,53,16.10
2006,09,02,05,54,16.10
2006,09,02,05,55,16.10
2006,09,02,05,56,16.10
2006,09,02,05,57,16.10
2006,09,02,05,58,16.10
2006,09,02,05,59,16.10
2006,09,02,06,00,16.10
2006,09,02,06,01,16.10
2006,09,02,06,02,16.10
2006,09,02,06,03,16.10
2006,09,02,06,04,16.10
2006,09,02,06,05,16.10
2006,09,02,06,06,16.10
2006,09,02,06,07,16.10
2006,09,02,06,08,16.10
2006,09,02,06,09,16.10
2006,09,02,06,10,16.10
2006,09,02,06,11,16.10
2006,09,02,06,12,16.20
2006,09,02,06,13,16.20
2006,09,02,06,14,16.20
2006,09,02,06,15,16.10
2006,09,02,06,16,16.10
2006,09,02,06,17,16.10
2006,09,02,06,18,16.10
2006,09,02,06,19,16.10
2006,09,02,06,20,16.10
2006,09,02,06,21,16.10
2006,09,02,06,22,16.20
2006,09,02,06,23,16.20
2006,09,02,06,24,16.20
2006,09,02,06,25,16.20
2006,09,02,06,26,16.20
2006,09,02,06,27,16.20
2006,09,02,06,28,16.20
2006,09,02,06,29,16.10
2006,09,02,06,30,16.10
2006,09,02,06,31,16.10
2006,09,02,06,32,16.10
2006,09,02,06,33,16.10
2006,09,02,06,34,16.10
2006,09,02,06,35,16.10
2006,09,02,06,36,16.00
2006,09,02,06,37,15.90
2006,09,02,06,38,15.90
2006,09,02,06,39,15.90
2006,09,02,06,40,15.90
2006,09,02,06,41,15.90
2006,09,02,06,42,15.90
2006,09,02,06,43,15.90
2006,09,02,06,44,15.90
2006,09,02,06,45,15.90
2006,09,02,06,46,15.90
2006,09,02,06,47,15.90
2006,09,02,06,48,15.90
2006,09,02,06,49,15.90
2006,09,02,06,50,16.00
2006,09,02,06,51,16.10
2006,09,02,06,52,16.10
2006,09,02,06,53,16.10
2006,09,02,06,54,16.10
2006,09,02,06,55,16.10
2006,09,02,06,56,16.10
2006,09,02,06,57,16.10
2006,09,02,06,58,16.10
2006,09,02,06,59,16.10
2006,09,02,07,00,16.20
2006,09,02,07,01,16.20
2006,09,02,07,02,16.20
2006,09,02,07,03,16.20
2006,09,02,07,04,16.20
2006,09,02,07,05,16.20
2006,09,02,07,06,16.30
2006,09,02,07,07,16.30
2006,09,02,07,08,16.30
2006,09,02,07,09,16.40
2006,09,02,07,10,16.40
2006,09,02,07,11,16.40
2006,09,02,07,12,16.40
2006,09,02,07,13,16.40
2006,09,02,07,14,16.40
2006,09,02,07,15,16.40
2006,09,02,07,16,16.40
2006,09,02,07,17,16.40
2006,09,02,07,18,16.40
2006,09,02,07,19,16.40
2006,09,02,07,20,16.40
2006,09,02,07,21,16.40
2006,09,02,07,22,16.40
2006,09,02,07,23,16.40
2006,09,02,07,24,16.50
2006,09,02,07,25,16.60
2006,09,02,07,26,16.60
2006,09,02,07,27,16.60
2006,09,02,07,28,16.70
2006,09,02,07,29,16.70
2006,09,02,07,30,16.70
2006,09,02,07,31,16.70
2006,09,02,07,32,16.80
2006,09,02,07,33,16.80
2006,09,02,07,34,16.90
2006,09,02,07,35,16.90
2006,09,02,07,36,16.90
2006,09,02,07,37,16.90
2006,09,02,07,38,16.90
2006,09,02,07,39,16.90
2006,09,02,07,40,16.90
2006,09,02,07,41,17.00
2006,09,02,07,42,17.00
2006,09,02,07,43,17.00
2006,09,02,07,44,17.10
2006,09,02,07,45,17.10
2006,09,02,07,46,17.10
2006,09,02,07,47,17.20
2006,09,02,07,48,17.20
2006,09,02,07,49,17.20
2006,09,02,07,50,17.30
2006,09,02,07,51,17.30
2006,09,02,07,52,17.30
2006,09,02,07,53,17.30
2006,09,02,07,54,17.30
2006,09,02,07,55,17.40
2006,09,02,07,56,17.40
2006,09,02,07,57,17.50
2006,09,02,07,58,17.50
2006,09,02,07,59,17.50
2006,09,02,08,00,17.60
2006,09,02,08,01,17.70
2006,09,02,08,02,17.80
2006,09,02,08,03,17.80
2006,09,02,08,04,17.90
2006,09,02,08,05,17.90
2006,09,02,08,06,17.90
2006,09,02,08,07,18.10
2006,09,02,08,08,18.10
2006,09,02,08,09,18.20
2006,09,02,08,10,18.20
2006,09,02,08,11,18.20
2006,09,02,08,12,18.20
2006,09,02,08,13,18.20
2006,09,02,08,14,18.20
2006,09,02,08,15,18.20
2006,09,02,08,16,18.30
2006,09,02,08,17,18.30
2006,09,02,08,18,18.30
2006,09,02,08,19,18.30
2006,09,02,08,20,18.40
2006,09,02,08,21,18.40
2006,09,02,08,22,18.50
2006,09,02,08,23,18.50
2006,09,02,08,24,18.60
2006,09,02,08,25,18.60
2006,09,02,08,26,18.70
2006,09,02,08,27,18.70
2006,09,02,08,28,18.80
2006,09,02,08,29,18.80
2006,09,02,08,30,18.90
2006,09,02,08,31,18.90
2006,09,02,08,32,19.00
2006,09,02,08,33,19.10
2006,09,02,08,34,19.10
2006,09,02,08,35,19.10
2006,09,02,08,36,19.20
2006,09,02,08,37,19.30
2006,09,02,08,38,19.30
2006,09,02,08,39,19.40
2006,09,02,08,40,19.40
2006,09,02,08,41,19.40
2006,09,02,08,42,19.50
2006,09,02,08,43,19.50
2006,09,02,08,44,19.60
2006,09,02,08,45,19.60
2006,09,02,08,46,19.70
2006,09,02,08,47,19.80
2006,09,02,08,48,19.80
2006,09,02,08,49,19.90
2006,09,02,08,50,19.90
2006,09,02,08,51,19.90
2006,09,02,08,52,20.10
2006,09,02,08,53,20.10
2006,09,02,08,54,20.10
2006,09,02,08,55,20.20
2006,09,02,08,56,20.20
2006,09,02,08,57,20.20
2006,09,02,08,58,20.20
2006,09,02,08,59,20.20
2006,09,02,09,00,20.20
2006,09,02,09,01,20.30
2006,09,02,09,02,20.30
2006,09,02,09,03,20.30
2006,09,02,09,04,20.40
2006,09,02,09,05,20.40
2006,09,02,09,06,20.50
2006,09,02,09,07,20.50
2006,09,02,09,08,20.50
2006,09,02,09,09,20.60
2006,09,02,09,10,20.60
2006,09,02,09,11,20.60
2006,09,02,09,12,20.70
2006,09,02,09,13,20.70
2006,09,02,09,14,20.70
2006,09,02,09,15,20.80
2006,09,02,09,16,20.80
2006,09,02,09,17,20.90
2006,09,02,09,18,20.90
2006,09,02,09,19,21.00
2006,09,02,09,20,20.90
2006,09,02,09,21,20.90
2006,09,02,09,22,21.00
2006,09,02,09,23,21.00
2006,09,02,09,24,21.00
2006,09,02,09,25,21.10
2006,09,02,09,26,21.10
2006,09,02,09,27,21.20
2006,09,02,09,28,21.30
2006,09,02,09,29,21.30
2006,09,02,09,30,21.30
2006,09,02,09,31,21.30
2006,09,02,09,32,21.30
2006,09,02,09,33,21.30
2006,09,02,09,34,21.30
2006,09,02,09,35,21.30
2006,09,02,09,36,21.30
2006,09,02,09,37,21.30
2006,09,02,09,38,21.30
2006,09,02,09,39,21.40
2006,09,02,09,40,21.40
2006,09,02,09,41,21.40
2006,09,02,09,42,21.50
2006,09,02,09,43,21.60
2006,09,02,09,44,21.60
2006,09,02,09,45,21.60
2006,09,02,09,46,21.50
2006,09,02,09,47,21.40
2006,09,02,09,48,21.40
2006,09,02,09,49,21.40
2006,09,02,09,50,21.40
2006,09,02,09,51,21.40
2006,09,02,09,52,21.40
2006,09,02,09,53,21.40
2006,09,02,09,54,21.40
2006,09,02,09,55,21.40
2006,09,02,09,56,21.40
2006,09,02,09,57,21.40
2006,09,02,09,58,21.30
2006,09,02,09,59,21.30
2006,09,02,10,00,21.20
2006,09,02,10,01,21.20
2006,09,02,10,02,21.30
2006,09,02,10,03,21.30
2006,09,02,10,04,21.30
2006,09,02,10,05,21.30
2006,09,02,10,06,21.40
2006,09,02,10,07,21.40
2006,09,02,10,08,21.50
2006,09,02,10,09,21.60
2006,09,02,10,10,21.60
2006,09,02,10,11,21.60
2006,09,02,10,12,21.70
2006,09,02,10,13,21.70
2006,09,02,10,14,21.70
2006,09,02,10,15,21.80
2006,09,02,10,16,21.80
2006,09,02,10,17,21.80
2006,09,02,10,18,21.90
2006,09,02,10,19,21.80
2006,09,02,10,20,21.80
2006,09,02,10,21,21.90
2006,09,02,10,22,22.00
2006,09,02,10,23,21.90
2006,09,02,10,24,21.90
2006,09,02,10,25,21.90
2006,09,02,10,26,21.90
2006,09,02,10,27,21.90
2006,09,02,10,28,21.80
2006,09,02,10,29,21.80
2006,09,02,10,30,21.80
2006,09,02,10,31,21.80
2006,09,02,10,32,21.80
2006,09,02,10,33,21.90
2006,09,02,10,34,21.90
2006,09,02,10,35,21.90
2006,09,02,10,36,21.90
2006,09,02,10,37,21.90
2006,09,02,10,38,21.90
2006,09,02,10,39,21.90
2006,09,02,10,40,21.90
2006,09,02,10,41,22.00
2006,09,02,10,42,22.00
2006,09,02,10,43,22.10
2006,09,02,10,44,22.10
2006,09,02,10,45,22.20
2006,09,02,10,46,22.20
2006,09,02,10,47,22.30
2006,09,02,10,48,22.20
2006,09,02,10,49,22.20
2006,09,02,10,50,22.30
2006,09,02,10,51,22.30
2006,09,02,10,52,22.30
2006,09,02,10,53,22.30
2006,09,02,10,54,22.40
2006,09,02,10,55,22.30
2006,09,02,10,56,22.30
2006,09,02,10,57,22.40
2006,09,02,10,58,22.50
2006,09,02,10,59,22.50
2006,09,02,11,00,22.60
2006,09,02,11,01,22.60
2006,09,02,11,02,22.70
2006,09,02,11,03,22.70
2006,09,02,11,04,22.70
2006,09,02,11,05,22.80
2006,09,02,11,06,22.80
2006,09,02,11,07,22.80
2006,09,02,11,08,22.70
2006,09,02,11,09,22.70
2006,09,02,11,10,22.70
2006,09,02,11,11,22.70
2006,09,02,11,12,22.70
2006,09,02,11,13,22.70
2006,09,02,11,14,22.70
2006,09,02,11,15,22.70
2006,09,02,11,16,22.60
2006,09,02,11,17,22.60
2006,09,02,11,18,22.70
2006,09,02,11,19,22.70
2006,09,02,11,20,22.70
2006,09,02,11,21,22.80
2006,09,02,11,22,22.80
2006,09,02,11,23,22.80
2006,09,02,11,24,22.80
2006,09,02,11,25,22.90
2006,09,02,11,26,23.00
2006,09,02,11,27,23.10
2006,09,02,11,28,23.20
2006,09,02,11,29,23.20
2006,09,02,11,30,23.20
2006,09,02,11,31,23.20
2006,09,02,11,32,23.30
2006,09,02,11,33,23.10
2006,09,02,11,34,23.10
2006,09,02,11,35,23.00
2006,09,02,11,36,22.90
2006,09,02,11,37,22.90
2006,09,02,11,38,22.90
2006,09,02,11,39,22.90
2006,09,02,11,40,22.90
2006,09,02,11,41,23.00
2006,09,02,11,42,23.10
2006,09,02,11,43,23.20
2006,09,02,11,44,23.30
2006,09,02,11,45,23.30
2006,09,02,11,46,23.30
2006,09,02,11,47,23.30
2006,09,02,11,48,23.30
2006,09,02,11,49,23.30
2006,09,02,11,50,23.30
2006,09,02,11,51,23.30
2006,09,02,11,52,23.30
2006,09,02,11,53,23.30
2006,09,02,11,54,23.30
2006,09,02,11,55,23.30
2006,09,02,11,56,23.20
2006,09,02,11,57,23.20
2006,09,02,11,58,23.20
2006,09,02,11,59,23.20
2006,09,02,12,00,23.30
2006,09,02,12,01,23.40
2006,09,02,12,02,23.50
2006,09,02,12,03,23.60
2006,09,02,12,04,23.70
2006,09,02,12,05,23.70
2006,09,02,12,06,23.70
2006,09,02,12,07,23.70
2006,09,02,12,08,23.70
2006,09,02,12,09,23.70
2006,09,02,12,10,23.70
2006,09,02,12,11,23.70
2006,09,02,12,12,23.80
2006,09,02,12,13,23.80
2006,09,02,12,14,23.90
2006,09,02,12,15,23.90
2006,09,02,12,16,23.90
2006,09,02,12,17,23.80
2006,09,02,12,18,23.80
2006,09,02,12,19,23.80
2006,09,02,12,20,23.80
2006,09,02,12,21,23.80
2006,09,02,12,22,23.70
2006,09,02,12,23,23.70
2006,09,02,12,24,23.80
2006,09,02,12,25,23.90
2006,09,02,12,26,24.00
2006,09,02,12,27,24.10
2006,09,02,12,28,24.10
2006,09,02,12,29,24.20
2006,09,02,12,30,24.30
2006,09,02,12,31,24.30
2006,09,02,12,32,24.30
2006,09,02,12,33,24.30
2006,09,02,12,34,24.20
2006,09,02,12,35,24.30
2006,09,02,12,36,24.30
2006,09,02,12,37,24.30
2006,09,02,12,38,24.30
2006,09,02,12,39,24.30
2006,09,02,12,40,24.40
2006,09,02,12,41,24.40
2006,09,02,12,42,24.40
2006,09,02,12,43,24.40
2006,09,02,12,44,24.50
2006,09,02,12,45,24.50
2006,09,02,12,46,24.50
2006,09,02,12,47,24.50
2006,09,02,12,48,24.50
2006,09,02,12,49,24.50
2006,09,02,12,50,24.50
2006,09,02,12,51,24.40
2006,09,02,12,52,24.40
2006,09,02,12,53,24.40
2006,09,02,12,54,24.50
2006,09,02,12,55,24.50
2006,09,02,12,56,24.70
2006,09,02,12,57,24.70
2006,09,02,12,58,24.80
2006,09,02,12,59,24.80
2006,09,02,13,00,24.90
2006,09,02,13,01,24.90
2006,09,02,13,02,25.00
2006,09,02,13,03,25.00
2006,09,02,13,04,24.90
2006,09,02,13,05,24.90
2006,09,02,13,06,24.80
2006,09,02,13,07,24.80
2006,09,02,13,08,24.80
2006,09,02,13,09,24.70
2006,09,02,13,10,24.80
2006,09,02,13,11,24.80
2006,09,02,13,12,24.80
2006,09,02,13,13,24.90
2006,09,02,13,14,24.90
2006,09,02,13,15,24.90
2006,09,02,13,16,24.90
2006,09,02,13,17,25.00
2006,09,02,13,18,25.10
2006,09,02,13,19,25.10
2006,09,02,13,20,25.00
2006,09,02,13,21,24.90
2006,09,02,13,22,24.90
2006,09,02,13,23,24.90
2006,09,02,13,24,24.90
2006,09,02,13,25,24.90
2006,09,02,13,26,25.00
2006,09,02,13,27,25.00
2006,09,02,13,28,25.10
2006,09,02,13,29,25.10
2006,09,02,13,30,25.20
2006,09,02,13,31,25.20
2006,09,02,13,32,25.20
2006,09,02,13,33,25.30
2006,09,02,13,34,25.30
2006,09,02,13,35,25.30
2006,09,02,13,36,25.30
2006,09,02,13,37,25.40
2006,09,02,13,38,25.50
2006,09,02,13,39,25.50
2006,09,02,13,40,25.50
2006,09,02,13,41,25.50
2006,09,02,13,42,25.60
2006,09,02,13,43,25.60
2006,09,02,13,44,25.60
2006,09,02,13,45,25.50
2006,09,02,13,46,25.60
2006,09,02,13,47,25.70
2006,09,02,13,48,25.70
2006,09,02,13,49,25.70
2006,09,02,13,50,25.70
2006,09,02,13,51,25.60
2006,09,02,13,52,25.60
2006,09,02,13,53,25.50
2006,09,02,13,54,25.50
2006,09,02,13,55,25.60
2006,09,02,13,56,25.60
2006,09,02,13,57,25.60
2006,09,02,13,58,25.60
2006,09,02,13,59,25.60
2006,09,02,14,00,25.60
2006,09,02,14,01,25.60
2006,09,02,14,02,25.60
2006,09,02,14,03,25.60
2006,09,02,14,04,25.60
2006,09,02,14,05,25.60
2006,09,02,14,06,25.60
2006,09,02,14,07,25.70
2006,09,02,14,08,25.70
2006,09,02,14,09,25.70
2006,09,02,14,10,25.70
2006,09,02,14,11,25.70
2006,09,02,14,12,25.80
2006,09,02,14,13,25.80
2006,09,02,14,14,25.80
2006,09,02,14,15,25.90
2006,09,02,14,16,25.90
2006,09,02,14,17,26.10
2006,09,02,14,18,26.10
2006,09,02,14,19,26.10
2006,09,02,14,20,26.10
2006,09,02,14,21,26.00
2006,09,02,14,22,26.00
2006,09,02,14,23,26.10
2006,09,02,14,24,26.20
2006,09,02,14,25,26.30
2006,09,02,14,26,26.40
2006,09,02,14,27,26.40
2006,09,02,14,28,26.40
2006,09,02,14,29,26.50
2006,09,02,14,30,26.60
2006,09,02,14,31,26.50
2006,09,02,14,32,26.40
2006,09,02,14,33,26.40
2006,09,02,14,34,26.40
2006,09,02,14,35,26.40
2006,09,02,14,36,26.40
2006,09,02,14,37,26.30
2006,09,02,14,38,26.40
2006,09,02,14,39,26.40
2006,09,02,14,40,26.50
2006,09,02,14,41,26.60
2006,09,02,14,42,26.60
2006,09,02,14,43,26.60
2006,09,02,14,44,26.60
2006,09,02,14,45,26.60
2006,09,02,14,46,26.60
2006,09,02,14,47,26.60
2006,09,02,14,48,26.60
2006,09,02,14,49,26.60
2006,09,02,14,50,26.60
2006,09,02,14,51,26.60
2006,09,02,14,52,26.60
2006,09,02,14,53,26.50
2006,09,02,14,54,26.40
2006,09,02,14,55,26.50
2006,09,02,14,56,26.60
2006,09,02,14,57,26.60
2006,09,02,14,58,26.60
2006,09,02,14,59,26.60
2006,09,02,15,00,26.60
2006,09,02,15,01,26.60
2006,09,02,15,02,26.70
2006,09,02,15,03,26.70
2006,09,02,15,04,26.70
2006,09,02,15,05,26.70
2006,09,02,15,06,26.70
2006,09,02,15,07,26.70
2006,09,02,15,08,26.70
2006,09,02,15,09,26.70
2006,09,02,15,10,26.70
2006,09,02,15,11,26.80
2006,09,02,15,12,26.80
2006,09,02,15,13,26.80
2006,09,02,15,14,26.80
2006,09,02,15,15,26.80
2006,09,02,15,16,26.70
2006,09,02,15,17,26.70
2006,09,02,15,18,26.70
2006,09,02,15,19,26.70
2006,09,02,15,20,26.70
2006,09,02,15,21,26.70
2006,09,02,15,22,26.80
2006,09,02,15,23,26.80
2006,09,02,15,24,26.80
2006,09,02,15,25,26.70
2006,09,02,15,26,26.70
2006,09,02,15,27,26.70
2006,09,02,15,28,26.70
2006,09,02,15,29,26.80
2006,09,02,15,30,26.80
2006,09,02,15,31,26.80
2006,09,02,15,32,26.90
2006,09,02,15,33,27.00
2006,09,02,15,34,27.10
2006,09,02,15,35,27.10
2006,09,02,15,36,27.10
2006,09,02,15,37,27.00
2006,09,02,15,38,26.90
2006,09,02,15,39,27.00
2006,09,02,15,40,27.10
2006,09,02,15,41,27.20
2006,09,02,15,42,27.20
2006,09,02,15,43,27.20
2006,09,02,15,44,27.30
2006,09,02,15,45,27.30
2006,09,02,15,46,27.30
2006,09,02,15,47,27.30
2006,09,02,15,48,27.30
2006,09,02,15,49,27.30
2006,09,02,15,50,27.30
2006,09,02,15,51,27.30
2006,09,02,15,52,27.30
2006,09,02,15,53,27.30
2006,09,02,15,54,27.30
2006,09,02,15,55,27.30
2006,09,02,15,56,27.30
2006,09,02,15,57,27.40
2006,09,02,15,58,27.40
2006,09,02,15,59,27.40
2006,09,02,16,00,27.50
2006,09,02,16,01,27.50
2006,09,02,16,02,27.40
2006,09,02,16,03,27.40
2006,09,02,16,04,27.40
2006,09,02,16,05,27.30
2006,09,02,16,06,27.30
2006,09,02,16,07,27.30
2006,09,02,16,08,27.20
2006,09,02,16,09,27.20
2006,09,02,16,10,27.20
2006,09,02,16,11,26.90
2006,09,02,16,12,26.60
2006,09,02,16,13,26.30
2006,09,02,16,14,26.00
2006,09,02,16,15,25.70
2006,09,02,16,16,25.30
2006,09,02,16,17,25.00
2006,09,02,16,18,24.90
2006,09,02,16,19,24.60
2006,09,02,16,20,24.40
2006,09,02,16,21,24.20
2006,09,02,16,22,24.10
2006,09,02,16,23,24.10
2006,09,02,16,24,24.10
2006,09,02,16,25,23.90
2006,09,02,16,26,23.90
2006,09,02,16,27,23.90
2006,09,02,16,28,23.90
2006,09,02,16,29,23.90
2006,09,02,16,30,24.00
2006,09,02,16,31,24.10
2006,09,02,16,32,24.10
2006,09,02,16,33,24.10
2006,09,02,16,34,24.20
2006,09,02,16,35,24.30
2006,09,02,16,36,24.40
2006,09,02,16,37,24.40
2006,09,02,16,38,24.40
2006,09,02,16,39,24.40
2006,09,02,16,40,24.30
2006,09,02,16,41,24.20
2006,09,02,16,42,24.10
2006,09,02,16,43,24.10
2006,09,02,16,44,24.00
2006,09,02,16,45,23.90
2006,09,02,16,46,23.80
2006,09,02,16,47,23.70
2006,09,02,16,48,23.60
2006,09,02,16,49,23.60
2006,09,02,16,50,23.50
2006,09,02,16,51,23.50
2006,09,02,16,52,23.60
2006,09,02,16,53,23.60
2006,09,02,16,54,23.60
2006,09,02,16,55,23.50
2006,09,02,16,56,23.40
2006,09,02,16,57,23.30
2006,09,02,16,58,23.20
2006,09,02,16,59,23.00
2006,09,02,17,00,22.90
2006,09,02,17,01,22.80
2006,09,02,17,02,22.60
2006,09,02,17,03,22.50
2006,09,02,17,04,22.30
2006,09,02,17,05,22.20
2006,09,02,17,06,22.20
2006,09,02,17,07,22.10
2006,09,02,17,08,22.00
2006,09,02,17,09,21.90
2006,09,02,17,10,21.80
2006,09,02,17,11,21.70
2006,09,02,17,12,21.60
2006,09,02,17,13,21.60
2006,09,02,17,14,21.50
2006,09,02,17,15,21.30
2006,09,02,17,16,21.30
2006,09,02,17,17,21.30
2006,09,02,17,18,21.30
2006,09,02,17,19,21.30